South Hill, VA

12:35 PM EDT on March 28, 2017 (GMT -0400)
Mecklenburg-Brunswick Regional

Weather History for KAVC - March, 2013

Change the Weather History Date:

Sunday, March 3, 2013

  Actual Average (KEMV) Record (KEMV)
Temperature  
Mean Temperature 36 °F -  
Max Temperature 44 °F 63 °F 77 °F (1992)
Min Temperature 28 °F 36 °F 12 °F (2009)
Degree Days  
Heating Degree Days 29    
Moisture  
Dew Point 20 °F    
Average Humidity 54    
Maximum Humidity 69    
Minimum Humidity 39    
Precipitation  
Precipitation 0.00 in - - ()
Sea Level Pressure  
Sea Level Pressure 29.93 in    
Wind  
Wind Speed 4 mph (WNW)    
Max Wind Speed 10 mph    
Max Gust Speed 21 mph    
Visibility 10 miles    
Events      
Averages and records for this station are not official NWS values.
T = Trace of Precipitation, MM = Missing Value Source: NWS Daily Summary

Daily Weather History Graph

Daily Weather History Graph

Search for Another Location

Airport or City:

Trip Planner

Search our weather history database for the weather conditions in past years. The results will help you decide how hot, cold, wet, or windy it might be!

Date:

Astronomy

Mar. 03, 2013 Rise Set
Actual Time 6:39 AM EST 6:08 PM EST
Civil Twilight 6:13 AM EST 6:34 PM EST
Nautical Twilight 5:44 AM EST 7:04 PM EST
Astronomical Twilight 5:14 AM EST 7:34 PM EST
Moon No Moon Rise 10:03 AM EST (3/3)
Length of Visible Light 12h 20m
Length of Day
11h 28m
Waning Gibbous, 64% of the Moon is Illuminated
Mar 3
Waning Gibbous
Mar 4
Last Quarter
Mar 11
New
Mar 19
First Quarter
Mar 27
Full

Hourly Weather History & Observations

Time (EST) Temp. Windchill Dew Point Humidity Pressure Visibility Wind Dir Wind Speed Gust Speed Precip Events Conditions
12:15 AM 35.6 °F 32.8 °F 21.2 °F 56% 29.93 in 10.0 mi NW 3.5 mph - N/A   Overcast
12:35 AM 35.6 °F 32.8 °F 21.2 °F 56% 29.93 in 10.0 mi NW 3.5 mph - N/A   Overcast
12:55 AM 35.6 °F - 21.2 °F 56% 29.93 in 10.0 mi Calm Calm - N/A   Overcast
1:15 AM 35.6 °F - 21.2 °F 56% 29.93 in 10.0 mi Calm Calm - N/A   Overcast
1:35 AM 33.8 °F - 21.2 °F 60% 29.93 in 10.0 mi Calm Calm - N/A   Overcast
1:55 AM 33.8 °F - 21.2 °F 60% 29.92 in 10.0 mi Calm Calm - N/A   Overcast
2:35 AM 33.8 °F - 21.2 °F 60% 29.92 in 10.0 mi Calm Calm - N/A   Overcast
2:55 AM 33.8 °F - 21.2 °F 60% 29.91 in 10.0 mi Calm Calm - N/A   Overcast
3:15 AM 33.8 °F - 21.2 °F 60% 29.91 in 10.0 mi Calm Calm - N/A   Overcast
3:35 AM 33.8 °F - 21.2 °F 60% 29.90 in 10.0 mi Calm Calm - N/A   Overcast
3:55 AM 33.8 °F - 21.2 °F 60% 29.91 in 10.0 mi Calm Calm - N/A   Overcast
4:15 AM 33.8 °F 30.8 °F 21.2 °F 60% 29.91 in 10.0 mi NW 3.5 mph - N/A   Overcast
4:35 AM 33.8 °F 30.8 °F 21.2 °F 60% 29.91 in 10.0 mi NW 3.5 mph - N/A   Unknown
4:55 AM 32.0 °F 28.7 °F 21.2 °F 64% 29.92 in 10.0 mi NW 3.5 mph - N/A   Overcast
5:15 AM 32.0 °F 28.7 °F 21.2 °F 64% 29.92 in 10.0 mi NW 3.5 mph - N/A   Overcast
5:35 AM 32.0 °F 28.7 °F 21.2 °F 64% 29.93 in 10.0 mi NW 3.5 mph - N/A   Overcast
5:55 AM 30.2 °F 26.7 °F 21.2 °F 69% 29.93 in 10.0 mi WNW 3.5 mph - N/A   Overcast
6:15 AM 30.2 °F - 21.2 °F 69% 29.94 in 10.0 mi Calm Calm - N/A   Overcast
6:35 AM 30.2 °F - 21.2 °F 69% 29.94 in 10.0 mi Calm Calm - N/A   Overcast
6:55 AM 30.2 °F 26.7 °F 19.4 °F 64% 29.94 in 10.0 mi WNW 3.5 mph - N/A   Overcast
7:15 AM 28.4 °F - 19.4 °F 69% 29.95 in 10.0 mi Calm Calm - N/A   Scattered Clouds
7:35 AM 28.4 °F - 19.4 °F 69% 29.95 in 10.0 mi Calm Calm - N/A   Clear
7:55 AM 30.2 °F 26.7 °F 21.2 °F 69% 29.96 in 10.0 mi NW 3.5 mph - N/A   Clear
8:15 AM 33.8 °F 29.6 °F 21.2 °F 60% 29.96 in 10.0 mi NNW 4.6 mph - N/A   Clear
8:35 AM 33.8 °F 28.6 °F 19.4 °F 56% 29.96 in 10.0 mi NNW 5.8 mph - N/A   Clear
8:55 AM 35.6 °F 29.9 °F 19.4 °F 52% 29.96 in 10.0 mi North 6.9 mph - N/A   Clear
9:15 AM 35.6 °F 29.2 °F 19.4 °F 52% 29.96 in 10.0 mi North 8.1 mph - N/A   Clear
9:35 AM 35.6 °F 31.7 °F 19.4 °F 52% 29.95 in 10.0 mi WNW 4.6 mph - N/A   Clear
9:55 AM 37.4 °F 33.8 °F 19.4 °F 48% 29.95 in 10.0 mi North 4.6 mph - N/A   Clear
10:15 AM 37.4 °F 32.1 °F 19.4 °F 48% 29.95 in 10.0 mi West 6.9 mph - N/A   Scattered Clouds
10:35 AM 37.4 °F 33.8 °F 19.4 °F 48% 29.95 in 10.0 mi NW 4.6 mph - N/A   Scattered Clouds
10:55 AM 39.2 °F 33.6 °F 21.2 °F 49% 29.95 in 10.0 mi WSW 8.1 mph - N/A   Scattered Clouds
11:15 AM 37.4 °F 33.8 °F 19.4 °F 48% 29.94 in 10.0 mi NW 4.6 mph - N/A   Mostly Cloudy
11:35 AM 39.2 °F 33.6 °F 21.2 °F 49% 29.93 in 10.0 mi West 8.1 mph - N/A   Scattered Clouds
11:55 AM 41.0 °F 39.0 °F 19.4 °F 42% 29.93 in 10.0 mi West 3.5 mph - N/A   Mostly Cloudy
12:15 PM 39.2 °F - 19.4 °F 45% 29.92 in 10.0 mi Calm Calm - N/A   Mostly Cloudy
12:35 PM 41.0 °F 38.0 °F 19.4 °F 42% 29.91 in 10.0 mi NW 4.6 mph - N/A   Overcast
12:55 PM 42.8 °F 38.0 °F 21.2 °F 42% 29.90 in 10.0 mi West 8.1 mph - N/A   Mostly Cloudy
1:15 PM 42.8 °F 40.1 °F 21.2 °F 42% 29.89 in 10.0 mi WNW 4.6 mph 16.1 mph N/A   Mostly Cloudy
1:35 PM 42.8 °F 40.1 °F 21.2 °F 42% 29.89 in 10.0 mi NW 4.6 mph - N/A   Mostly Cloudy
1:55 PM 42.8 °F 38.6 °F 21.2 °F 42% 29.88 in 10.0 mi West 6.9 mph - N/A   Mostly Cloudy
2:15 PM 42.8 °F 37.0 °F 21.2 °F 42% 29.87 in 10.0 mi West 10.4 mph - N/A   Scattered Clouds
2:35 PM 44.6 °F 40.2 °F 21.2 °F 39% 29.86 in 10.0 mi West 8.1 mph 16.1 mph N/A   Scattered Clouds
2:55 PM 44.6 °F 41.4 °F 21.2 °F 39% 29.86 in 10.0 mi WNW 5.8 mph - N/A   Clear
3:35 PM 44.6 °F 41.4 °F 21.2 °F 39% 29.86 in 10.0 mi NW 5.8 mph - N/A   Mostly Cloudy
3:55 PM 42.8 °F 39.3 °F 21.2 °F 42% 29.86 in 10.0 mi West 5.8 mph 16.1 mph N/A   Scattered Clouds
4:35 PM 44.6 °F 40.2 °F 21.2 °F 39% 29.86 in 10.0 mi West 8.1 mph - N/A   Overcast
5:15 PM 42.8 °F 38.0 °F 21.2 °F 42% 29.87 in 10.0 mi West 8.1 mph - N/A   Mostly Cloudy
5:35 PM 42.8 °F 38.0 °F 21.2 °F 42% 29.88 in 10.0 mi West 8.1 mph - N/A   Mostly Cloudy
5:55 PM 41.0 °F 37.1 °F 21.2 °F 45% 29.89 in 10.0 mi West 5.8 mph - N/A   Scattered Clouds
6:15 PM 39.2 °F 33.0 °F 21.2 °F 49% 29.90 in 10.0 mi West 9.2 mph 18.4 mph N/A   Mostly Cloudy
6:35 PM 39.2 °F 32.5 °F 19.4 °F 45% 29.91 in 10.0 mi West 10.4 mph - N/A   Mostly Cloudy
6:55 PM 37.4 °F 30.3 °F 19.4 °F 48% 29.92 in 10.0 mi West 10.4 mph 17.3 mph N/A   Scattered Clouds
7:15 PM 35.6 °F 28.6 °F 19.4 °F 52% 29.93 in 10.0 mi West 9.2 mph 20.7 mph N/A   Clear
7:35 PM 35.6 °F 29.9 °F 19.4 °F 52% 29.94 in 10.0 mi West 6.9 mph 19.6 mph N/A   Clear
7:55 PM 35.6 °F 29.9 °F 19.4 °F 52% 29.95 in 10.0 mi West 6.9 mph - N/A   Clear
8:15 PM 33.8 °F 27.0 °F 19.4 °F 56% 29.96 in 10.0 mi West 8.1 mph - N/A   Clear
8:35 PM 33.8 °F 27.7 °F 19.4 °F 56% 29.96 in 10.0 mi West 6.9 mph - N/A   Clear
8:55 PM 33.8 °F 28.6 °F 19.4 °F 56% 29.97 in 10.0 mi WNW 5.8 mph - N/A   Clear
9:15 PM 32.0 °F 27.5 °F 19.4 °F 60% 29.98 in 10.0 mi West 4.6 mph - N/A   Clear
9:35 PM 32.0 °F 27.5 °F 19.4 °F 60% 29.98 in 10.0 mi West 4.6 mph - N/A   Clear
9:55 PM 30.2 °F 24.3 °F 19.4 °F 64% 29.98 in 10.0 mi West 5.8 mph - N/A   Clear
10:15 PM 30.2 °F 24.3 °F 19.4 °F 64% 29.99 in 10.0 mi West 5.8 mph - N/A   Clear
10:35 PM 30.2 °F 25.4 °F 17.6 °F 60% 29.99 in 10.0 mi WNW 4.6 mph - N/A   Clear
10:55 PM 30.2 °F 25.4 °F 17.6 °F 60% 29.99 in 10.0 mi WNW 4.6 mph - N/A   Clear
11:15 PM 28.4 °F 23.3 °F 17.6 °F 64% 29.99 in 10.0 mi WNW 4.6 mph - N/A   Clear
11:35 PM 28.4 °F 24.6 °F 17.6 °F 64% 30.00 in 10.0 mi WNW 3.5 mph - N/A   Clear
11:55 PM 28.4 °F 24.6 °F 17.6 °F 64% 30.00 in 10.0 mi WNW 3.5 mph - N/A   Scattered Clouds